QPF
0.00 0.00 0.00 0.00 0.00 0.00 0.00 0.00 0.00 0.00 0.00 0.00 0.00 0.00 0.00 0.00 0.00 0.00 0.00 0.00 0.00 0.00 0.00 0.00 0.00 0.00 0.00 0.00 0.00 0.00 0.00 0.00 0.00 0.00 0.00 0.00 0.00 0.00 0.00 0.00 0.00 0.00 0.00
0.00 0.00 0.00 0.00 0.00 0.00 0.00 0.00 0.00 0.00 0.00 0.00 0.00 0.00 0.00 0.00 0.00 0.00 0.00 0.00 0.00 0.00 0.00 0.00 0.00 0.00 0.00 0.00 0.00 0.00 0.00 0.00 0.00 0.00 0.00 0.00 0.00 0.00 0.00 0.00 0.01 0.00 0.00
0.00 0.00 0.00 0.00 0.00 0.00 0.00 0.00 0.00 0.00 0.00 0.00 0.00 0.00 0.00 0.00 0.00 0.00 0.00 0.00 0.00 0.00 0.00 0.00 0.00 0.00 0.00 0.00 0.00 0.00 0.00 0.00 0.00 0.00 0.00 0.00 0.00 0.00 0.00 0.00 0.00 0.00 0.00
0.00 0.00 0.00 0.00 0.00 0.00 0.00 0.00 0.00 0.00 0.00 0.00 0.00 0.00 0.00 0.00 0.00 0.00 0.00 0.00 0.00 0.00 0.00 0.00 0.00 0.00 0.00 0.00 0.00 0.00 0.00 0.00 0.00 0.00 0.00 0.04 0.01 0.00 0.00 0.00 0.00 0.00 0.00
0.00 0.00 0.00 0.00 0.00 0.00 0.00 0.00 0.00 0.00 0.00 0.00 0.00 0.00 0.00 0.00 0.00 0.00 0.00 0.00 0.00 0.00 0.00 0.00 0.00 0.00 0.00 0.00 0.00 0.00 0.00 0.00 0.00 0.00 0.01 0.01 0.01 0.00 0.00 0.00 0.00 0.00 0.00
0.00 0.00 0.00 0.00 0.00 0.00 0.00 0.00 0.00 0.00 0.00 0.00 0.00 0.00 0.00 0.00 0.00 0.00 0.00 0.00 0.00 0.00 0.00 0.00 0.00 0.00 0.00 0.00 0.00 0.00 0.00 0.00 0.00 0.00 0.00 0.00 0.02 0.03 0.00 0.00 0.00 0.00 0.00
0.00 0.00 0.00 0.00 0.00 0.00 0.00 0.00 0.00 0.00 0.00 0.00 0.00 0.00 0.00 0.00 0.00 0.00 0.00 0.00 0.00 0.00 0.00 0.00 0.00 0.00 0.00 0.00 0.00 0.00 0.00 0.00 0.00 0.00 0.00 0.00 0.03 0.02 0.00 0.00 0.00 0.00 0.00
0.00 0.00 0.00 0.00 0.00 0.00 0.00 0.00 0.00 0.00 0.00 0.00 0.00 0.00 0.00 0.00 0.00 0.00 0.00 0.00 0.00 0.00 0.00 0.00 0.00 0.00 0.00 0.00 0.00 0.00 0.00 0.00 0.00 0.00 0.00 0.00 0.00 0.00 0.00 0.00 0.00 0.00 0.00
0.00 0.00 0.00 0.00 0.00 0.00 0.00 0.00 0.00 0.00 0.00 0.00 0.00 0.00 0.00 0.00 0.00 0.00 0.00 0.00 0.00 0.00 0.00 0.00 0.00 0.00 0.00 0.00 0.00 0.00 0.00 0.00 0.00 0.00 0.00 0.00 0.00 0.00 0.00 0.00 0.01 0.01 0.01
0.00 0.00 0.00 0.00 0.00 0.00 0.00 0.00 0.00 0.00 0.00 0.00 0.00 0.00 0.00 0.00 0.00 0.00 0.00 0.00 0.00 0.02 0.05 0.01 0.00 0.00 0.00 0.00 0.00 0.00 0.00 0.00 0.00 0.00 0.00 0.00 0.00 0.00 0.01 0.01 0.00 0.01 0.02
0.00 0.00 0.00 0.00 0.00 0.00 0.00 0.00 0.00 0.00 0.00 0.00 0.00 0.00 0.00 0.00 0.00 0.00 0.00 0.00 0.00 0.04 0.05 0.04 0.03 0.02 0.00 0.00 0.00 0.00 0.00 0.00 0.00 0.00 0.00 0.00 0.00 0.00 0.00 0.00 0.01 0.00 0.01
0.00 0.00 0.00 0.00 0.00 0.00 0.00 0.00 0.00 0.00 0.00 0.00 0.00 0.00 0.00 0.00 0.01 0.00 0.01 0.00 0.00 0.01 0.05 0.05 0.05 0.03 0.00 0.00 0.00 0.00 0.00 0.00 0.00 0.00 0.00 0.00 0.00 0.00 0.00 0.00 0.00 0.00 0.00
0.00 0.00 0.00 0.00 0.00 0.00 0.00 0.00 0.00 0.00 0.00 0.00 0.00 0.00 0.01 0.03 0.05 0.05 0.08 0.05 0.01 0.00 0.00 0.02 0.01 0.00 0.00 0.00 0.00 0.00 0.00 0.00 0.00 0.00 0.00 0.00 0.00 0.00 0.00 0.00 0.00 0.00 0.01
0.00 0.00 0.00 0.00 0.00 0.00 0.00 0.00 0.00 0.00 0.01 0.00 0.01 0.01 0.02 0.04 0.06 0.06 0.06 0.07 0.10 0.09 0.07 0.13 0.09 0.08 0.04 0.02 0.00 0.00 0.00 0.00 0.00 0.00 0.00 0.00 0.00 0.00 0.00 0.00 0.00 0.00 0.01
0.00 0.00 0.00 0.00 0.00 0.00 0.00 0.01 0.04 0.06 0.06 0.06 0.06 0.05 0.07 0.06 0.06 0.10 0.09 0.08 0.05 0.08 0.10 0.12 0.11 0.10 0.11 0.11 0.07 0.02 0.00 0.00 0.00 0.00 0.00 0.00 0.00 0.00 0.00 0.00 0.00 0.00 0.00
0.00 0.00 0.00 0.00 0.00 0.00 0.00 0.00 0.02 0.05 0.07 0.08 0.05 0.03 0.03 0.04 0.04 0.05 0.10 0.11 0.08 0.08 0.08 0.10 0.09 0.12 0.11 0.07 0.05 0.06 0.06 0.04 0.01 0.00 0.00 0.00 0.00 0.00 0.00 0.00 0.00 0.00 0.01
0.00 0.00 0.00 0.00 0.00 0.00 0.00 0.00 0.00 0.00 0.01 0.01 0.01 0.02 0.02 0.02 0.01 0.01 0.06 0.09 0.12 0.16 0.17 0.17 0.16 0.16 0.13 0.05 0.00 0.00 0.05 0.09 0.04 0.01 0.00 0.00 0.00 0.00 0.00 0.00 0.00 0.00 0.00
0.00 0.00 0.00 0.00 0.00 0.00 0.00 0.00 0.00 0.00 0.01 0.00 0.00 0.00 0.00 0.00 0.00 0.01 0.01 0.01 0.01 0.01 0.03 0.07 0.16 0.28 0.26 0.15 0.05 0.01 0.01 0.04 0.06 0.12 0.10 0.04 0.00 0.00 0.00 0.00 0.00 0.00 0.00
0.00 0.00 0.00 0.00 0.00 0.00 0.00 0.00 0.00 0.00 0.00 0.00 0.00 0.00 0.00 0.00 0.00 0.00 0.00 0.00 0.00 0.00 0.01 0.00 0.02 0.08 0.17 0.22 0.14 0.10 0.05 0.02 0.08 0.15 0.10 0.13 0.09 0.05 0.03 0.02 0.00 0.00 0.00
0.00 0.00 0.00 0.00 0.00 0.00 0.00 0.00 0.00 0.00 0.00 0.00 0.00 0.00 0.01 0.00 0.00 0.00 0.00 0.00 0.00 0.00 0.00 0.00 0.00 0.00 0.03 0.09 0.16 0.19 0.25 0.24 0.21 0.32 0.24 0.24 0.20 0.18 0.09 0.06 0.04 0.00 0.00
0.00 0.00 0.00 0.00 0.00 0.00 0.00 0.00 0.00 0.00 0.00 0.00 0.00 0.00 0.00 0.00 0.00 0.00 0.00 0.00 0.00 0.00 0.00 0.00 0.00 0.00 0.01 0.03 0.07 0.07 0.14 0.19 0.15 0.10 0.05 0.05 0.04 0.03 0.03 0.02 0.03 0.04 0.01
0.00 0.00 0.00 0.00 0.00 0.00 0.00 0.00 0.00 0.00 0.00 0.00 0.00 0.00 0.00 0.00 0.00 0.00 0.00 0.00 0.00 0.00 0.00 0.00 0.00 0.00 0.00 0.00 0.03 0.03 0.05 0.07 0.11 0.11 0.05 0.01 0.00 0.00 0.00 0.00 0.01 0.02 0.03
0.00 0.00 0.00 0.00 0.00 0.00 0.00 0.00 0.00 0.00 0.00 0.00 0.00 0.00 0.00 0.00 0.00 0.00 0.00 0.00 0.00 0.00 0.00 0.00 0.00 0.00 0.00 0.00 0.01 0.02 0.04 0.02 0.01 0.03 0.02 0.01 0.00 0.00 0.00 0.00 0.00 0.01 0.02
0.00 0.00 0.00 0.00 0.00 0.00 0.00 0.00 0.00 0.00 0.00 0.00 0.00 0.00 0.00 0.00 0.00 0.00 0.00 0.00 0.00 0.00 0.00 0.00 0.00 0.00 0.00 0.00 0.00 0.00 0.01 0.03 0.04 0.03 0.02 0.01 0.00 0.00 0.00 0.00 0.00 0.00 0.00
0.00 0.00 0.00 0.00 0.00 0.00 0.00 0.00 0.00 0.00 0.00 0.00 0.00 0.00 0.00 0.00 0.00 0.00 0.00 0.00 0.00 0.00 0.00 0.00 0.00 0.00 0.00 0.00 0.00 0.00 0.00 0.00 0.01 0.04 0.03 0.01 0.03 0.02 0.00 0.00 0.00 0.00 0.01
0.00 0.00 0.00 0.00 0.00 0.00 0.00 0.00 0.00 0.00 0.00 0.00 0.00 0.00 0.00 0.00 0.00 0.00 0.00 0.00 0.00 0.00 0.00 0.00 0.00 0.00 0.00 0.00 0.00 0.00 0.00 0.00 0.00 0.01 0.03 0.02 0.02 0.01 0.01 0.00 0.00 0.00 0.00
MSLP
1006.00 1007.66 1008.83 1009.10 1009.22 1009.40 1009.62 1009.98 1010.29 1010.69 1010.96 1011.35 1011.74 1012.05 1012.19 1012.34 1012.47 1012.58 1012.68 1012.84 1012.96 1013.09 1013.24 1013.41 1013.65 1013.85 1014.00 1014.15 1014.24 1014.24 1014.34 1014.49 1014.57 1014.59 1014.68 1014.90 1015.09 1015.19 1015.22 1015.22 1015.24 1015.14 1015.92
1006.29 1007.69 1008.91 1009.18 1009.40 1009.55 1009.84 1010.19 1010.45 1010.78 1011.08 1011.36 1011.68 1011.96 1012.27 1012.49 1012.73 1012.91 1013.08 1013.19 1013.25 1013.40 1013.51 1013.63 1013.90 1014.09 1014.24 1014.34 1014.49 1014.54 1014.58 1014.65 1014.70 1014.77 1014.82 1014.99 1015.30 1015.46 1015.43 1015.59 1015.55 1015.69 1016.16
1006.70 1007.96 1009.07 1009.57 1009.81 1009.90 1010.03 1010.33 1010.62 1010.89 1011.18 1011.44 1011.76 1012.06 1012.26 1012.44 1012.74 1013.06 1013.32 1013.52 1013.69 1013.76 1013.72 1013.82 1014.05 1014.30 1014.42 1014.57 1014.73 1014.85 1014.84 1014.79 1014.80 1014.76 1014.74 1013.96 1014.60 1015.54 1015.74 1015.89 1015.83 1015.98 1016.41
1007.09 1008.17 1008.67 1009.89 1010.12 1010.21 1010.29 1010.38 1010.68 1010.96 1011.26 1011.54 1011.83 1012.19 1012.42 1012.57 1012.69 1012.91 1013.27 1013.57 1013.83 1013.92 1014.01 1014.12 1014.28 1014.50 1014.66 1014.79 1014.94 1014.99 1014.96 1014.98 1014.90 1014.67 1014.35 1014.27 1014.32 1015.52 1015.90 1016.16 1016.21 1016.34 1016.56
1007.45 1007.81 1009.05 1010.09 1010.39 1010.55 1010.53 1010.56 1010.67 1010.99 1011.23 1011.45 1011.82 1012.16 1012.44 1012.67 1012.86 1013.06 1013.27 1013.42 1013.66 1013.82 1013.94 1014.14 1014.42 1014.70 1014.84 1014.94 1015.03 1015.04 1015.03 1015.06 1015.04 1014.73 1013.94 1014.27 1014.42 1015.37 1015.98 1016.25 1016.47 1016.62 1016.66
1007.91 1008.04 1009.78 1010.26 1010.52 1010.73 1010.90 1011.02 1010.94 1011.07 1011.26 1011.43 1011.77 1011.98 1012.25 1012.58 1012.83 1012.99 1013.25 1013.46 1013.55 1013.63 1013.84 1014.10 1014.37 1014.61 1014.84 1014.98 1015.06 1015.09 1015.09 1015.14 1015.13 1013.99 1013.00 1013.79 1014.55 1015.32 1015.87 1016.30 1016.30 1016.47 1016.82
1008.39 1008.53 1009.67 1010.48 1010.71 1010.92 1011.10 1011.28 1011.41 1011.41 1011.63 1011.73 1011.86 1012.09 1012.32 1012.49 1012.71 1012.97 1013.22 1013.42 1013.51 1013.59 1013.69 1013.87 1014.18 1014.47 1014.78 1014.99 1015.10 1015.13 1015.16 1015.17 1014.75 1013.21 1012.98 1013.60 1014.65 1015.33 1015.75 1016.22 1016.44 1016.67 1016.93
1008.94 1009.04 1009.40 1010.66 1011.06 1011.32 1011.44 1011.45 1011.60 1011.74 1011.84 1011.94 1012.14 1012.30 1012.45 1012.57 1012.74 1012.91 1013.17 1013.43 1013.49 1013.55 1013.68 1013.85 1013.97 1014.24 1014.52 1014.81 1015.02 1015.18 1015.22 1015.20 1014.54 1013.39 1012.95 1013.07 1014.47 1015.24 1015.62 1016.07 1016.39 1016.71 1016.99
1009.28 1009.48 1009.62 1009.84 1010.61 1011.26 1011.54 1011.60 1011.50 1011.66 1011.79 1011.92 1012.14 1012.25 1012.38 1012.54 1012.73 1012.95 1013.16 1013.31 1013.51 1013.61 1013.70 1013.86 1014.01 1014.18 1014.36 1014.58 1014.81 1015.07 1015.21 1015.19 1014.78 1013.19 1012.75 1013.08 1014.34 1014.99 1015.49 1015.85 1016.19 1016.50 1016.84
1009.66 1009.74 1009.87 1009.90 1010.04 1009.98 1010.40 1011.15 1011.12 1011.10 1011.34 1011.52 1011.73 1012.00 1012.23 1012.45 1012.59 1012.67 1012.82 1013.04 1013.31 1013.58 1013.74 1013.75 1013.97 1014.18 1014.38 1014.48 1014.66 1014.84 1015.05 1015.14 1014.71 1013.71 1012.59 1012.97 1013.93 1014.65 1015.33 1015.68 1015.99 1016.24 1016.51
1009.72 1010.00 1010.20 1010.16 1009.89 1009.92 1009.94 1010.01 1011.11 1011.31 1011.54 1011.74 1011.89 1011.98 1012.09 1011.73 1011.51 1011.87 1012.08 1012.40 1012.81 1013.12 1013.45 1013.57 1013.81 1014.15 1014.32 1014.59 1014.52 1014.64 1014.87 1014.36 1013.88 1013.37 1012.31 1013.09 1013.72 1014.39 1015.00 1015.46 1015.78 1016.04 1016.27
1010.33 1010.35 1010.20 1010.55 1010.52 1010.08 1009.68 1009.51 1010.18 1010.28 1010.76 1010.95 1010.94 1010.96 1011.51 1011.33 1011.02 1010.74 1010.91 1011.49 1012.10 1012.64 1013.03 1013.32 1013.52 1013.81 1014.14 1013.59 1013.56 1014.31 1014.19 1013.60 1013.01 1012.38 1011.98 1012.98 1013.42 1014.08 1014.68 1015.11 1015.43 1015.71 1016.03
1011.35 1011.08 1011.69 1011.69 1010.91 1010.33 1009.76 1009.29 1009.30 1009.30 1009.46 1009.75 1010.36 1010.53 1010.66 1010.88 1010.83 1010.86 1010.52 1011.03 1011.43 1011.94 1012.08 1012.68 1012.88 1013.13 1012.93 1012.78 1012.26 1012.36 1012.77 1012.92 1012.38 1011.71 1011.62 1012.67 1013.07 1013.77 1014.30 1014.71 1015.06 1015.30 1015.59
1012.42 1012.72 1013.02 1013.05 1012.63 1011.89 1011.42 1009.58 1009.00 1008.95 1008.75 1009.07 1009.35 1010.45 1010.57 1010.88 1010.88 1010.80 1010.70 1010.73 1010.87 1010.52 1011.02 1011.33 1011.92 1011.90 1012.06 1011.99 1011.86 1011.44 1011.27 1011.51 1011.34 1011.18 1011.33 1012.25 1012.66 1013.32 1013.80 1014.10 1014.40 1014.71 1015.06
1013.32 1013.56 1014.10 1013.84 1013.69 1013.05 1012.72 1012.28 1010.93 1010.04 1009.46 1009.51 1009.80 1010.62 1010.75 1010.80 1010.98 1010.98 1010.94 1010.89 1010.71 1010.79 1010.86 1011.03 1011.29 1011.68 1011.89 1011.95 1011.80 1011.27 1011.38 1011.01 1011.22 1010.95 1010.59 1011.95 1012.19 1012.87 1013.50 1013.85 1014.08 1014.28 1014.47
1014.56 1014.71 1014.99 1014.65 1014.56 1013.98 1013.72 1013.48 1013.08 1012.61 1012.21 1011.81 1011.91 1012.07 1011.96 1011.95 1011.54 1011.57 1011.30 1011.20 1010.99 1010.81 1010.64 1010.67 1010.94 1011.12 1011.30 1011.36 1011.54 1011.44 1011.08 1010.76 1010.85 1010.89 1010.71 1011.47 1011.91 1012.25 1012.86 1013.24 1013.42 1013.65 1014.01
1015.32 1015.62 1015.65 1015.53 1015.40 1014.85 1014.09 1014.11 1013.87 1013.53 1013.38 1013.18 1012.98 1012.83 1012.78 1012.72 1012.78 1012.59 1012.25 1011.76 1011.45 1011.19 1010.83 1010.76 1010.74 1010.76 1010.72 1010.75 1010.53 1010.50 1010.78 1010.74 1010.76 1010.68 1010.65 1010.46 1011.41 1011.64 1011.95 1012.54 1012.90 1013.08 1013.19
1015.83 1016.21 1016.18 1016.18 1015.86 1015.42 1015.08 1014.42 1014.42 1014.18 1014.30 1013.91 1013.64 1013.42 1013.42 1013.11 1013.06 1012.89 1012.62 1012.38 1012.18 1012.00 1011.74 1011.37 1011.08 1010.59 1010.66 1010.36 1009.57 1009.41 1009.40 1010.10 1010.38 1010.35 1010.54 1010.27 1009.97 1010.38 1011.31 1011.50 1011.91 1012.21 1012.65
1015.98 1016.22 1016.43 1016.62 1016.44 1015.73 1015.34 1015.06 1014.72 1014.52 1014.74 1014.33 1014.15 1013.90 1013.83 1013.43 1013.32 1013.05 1012.52 1012.08 1012.10 1011.96 1011.82 1011.67 1011.50 1011.36 1010.71 1010.00 1009.97 1008.27 1008.67 1009.40 1009.92 1009.82 1009.78 1009.66 1009.81 1010.03 1010.21 1011.05 1011.03 1011.44 1011.93
1016.61 1016.83 1016.98 1016.99 1016.91 1016.40 1015.63 1015.26 1015.22 1015.20 1014.73 1014.54 1014.52 1014.57 1014.24 1014.04 1013.85 1013.40 1012.59 1012.45 1012.29 1012.02 1011.65 1011.36 1011.32 1011.09 1011.01 1010.51 1009.59 1008.97 1009.01 1009.23 1009.22 1009.18 1009.53 1009.29 1009.83 1010.91 1011.19 1010.99 1010.89 1010.77 1011.13
1017.21 1017.26 1017.25 1017.23 1017.22 1017.03 1016.64 1016.09 1015.25 1015.36 1015.39 1015.12 1014.91 1014.89 1014.80 1014.69 1014.67 1014.44 1014.30 1013.79 1013.64 1013.25 1013.05 1012.69 1012.08 1011.37 1010.73 1010.22 1010.24 1009.50 1009.20 1009.38 1008.91 1009.17 1008.17 1006.62 1009.69 1009.81 1010.10 1010.73 1010.36 1009.86 1009.68
1017.68 1017.65 1017.51 1017.51 1017.54 1017.36 1017.08 1016.89 1016.56 1016.02 1015.57 1015.71 1015.86 1015.31 1015.29 1015.32 1015.65 1015.62 1015.65 1015.23 1014.87 1014.53 1014.18 1013.88 1013.74 1012.91 1011.68 1010.66 1010.15 1010.07 1009.29 1008.87 1008.63 1008.42 1008.74 1008.24 1008.38 1008.78 1008.25 1009.20 1009.13 1008.73 1009.12
1018.52 1018.50 1018.25 1018.26 1018.12 1018.15 1017.89 1017.19 1016.68 1016.14 1015.66 1015.78 1015.84 1016.12 1015.86 1016.07 1016.21 1016.32 1016.13 1015.81 1015.51 1015.18 1014.85 1014.57 1014.48 1014.05 1013.03 1012.01 1011.15 1010.45 1009.61 1008.57 1007.91 1007.71 1007.51 1007.40 1007.86 1007.68 1008.01 1008.26 1008.16 1008.33 1008.29
1019.15 1019.31 1019.30 1019.05 1018.87 1018.79 1018.70 1018.14 1017.75 1017.21 1016.71 1016.62 1016.40 1016.49 1016.49 1016.46 1016.50 1016.69 1016.59 1016.21 1016.11 1015.77 1015.47 1015.11 1015.05 1014.87 1014.23 1013.09 1012.38 1011.13 1010.40 1009.80 1009.38 1007.80 1007.02 1006.93 1006.74 1007.21 1007.30 1007.17 1007.12 1007.06 1007.16
1019.31 1019.29 1019.34 1019.14 1019.04 1019.34 1019.34 1019.26 1018.83 1018.49 1018.31 1017.88 1017.61 1017.28 1017.16 1017.04 1016.98 1016.87 1017.09 1016.52 1016.28 1016.31 1015.96 1015.53 1015.37 1015.23 1014.62 1013.87 1013.27 1012.60 1011.68 1010.38 1009.80 1009.03 1007.73 1006.58 1006.02 1005.91 1005.95 1006.09 1006.01 1005.76 1005.92
1019.68 1019.76 1019.52 1019.30 1019.20 1019.51 1019.58 1019.63 1019.71 1019.64 1019.47 1019.08 1019.09 1018.63 1018.49 1018.10 1017.80 1017.82 1017.44 1017.11 1016.59 1016.54 1016.25 1016.09 1015.56 1015.26 1014.63 1014.09 1013.56 1013.08 1012.50 1011.79 1010.55 1009.85 1008.73 1007.58 1006.38 1005.21 1004.51 1004.22 1004.38 1004.66 1005.03
Thickness
5811 5801 5791 5788 5787 5785 5783 5780 5777 5773 5770 5765 5761 5757 5755 5753 5751 5750 5748 5746 5745 5742 5740 5737 5735 5732 5730 5728 5727 5727 5728 5726 5725 5725 5723 5721 5718 5717 5716 5715 5713 5711 5703
5811 5798 5788 5785 5783 5782 5778 5774 5772 5769 5766 5763 5759 5756 5752 5749 5746 5744 5742 5740 5739 5737 5735 5734 5731 5728 5726 5725 5723 5723 5724 5723 5723 5722 5721 5719 5716 5713 5713 5711 5710 5707 5701
5804 5793 5784 5780 5777 5776 5774 5770 5767 5764 5762 5760 5757 5753 5750 5748 5744 5741 5738 5735 5733 5732 5732 5731 5728 5725 5723 5721 5720 5718 5719 5720 5721 5721 5720 5725 5719 5712 5709 5707 5706 5704 5699
5799 5789 5784 5774 5771 5769 5769 5767 5764 5760 5757 5756 5753 5749 5746 5745 5743 5740 5736 5733 5730 5729 5728 5726 5724 5722 5720 5718 5716 5715 5716 5717 5718 5720 5721 5722 5720 5711 5706 5703 5702 5700 5697
5791 5788 5777 5769 5765 5762 5763 5763 5761 5757 5755 5753 5750 5746 5744 5741 5739 5737 5735 5733 5730 5727 5725 5723 5720 5718 5717 5715 5715 5714 5714 5714 5715 5717 5723 5721 5718 5710 5705 5702 5699 5696 5695
5784 5782 5768 5764 5761 5757 5755 5754 5755 5753 5751 5749 5746 5744 5742 5739 5736 5735 5732 5730 5728 5726 5723 5720 5717 5716 5715 5713 5712 5712 5712 5712 5713 5720 5728 5721 5716 5710 5704 5700 5698 5696 5692
5774 5773 5764 5758 5755 5752 5749 5748 5747 5747 5744 5743 5742 5740 5738 5736 5734 5732 5730 5727 5726 5724 5723 5720 5717 5715 5713 5711 5710 5709 5709 5710 5712 5724 5725 5720 5712 5707 5703 5699 5696 5693 5690
5765 5764 5762 5752 5747 5744 5743 5743 5741 5740 5739 5737 5736 5734 5733 5732 5730 5729 5727 5724 5723 5722 5720 5718 5716 5714 5712 5710 5708 5707 5706 5707 5711 5719 5723 5722 5712 5705 5702 5698 5694 5691 5688
5758 5756 5754 5751 5744 5740 5737 5737 5738 5736 5735 5734 5732 5731 5730 5729 5727 5725 5723 5722 5720 5718 5717 5715 5713 5711 5710 5709 5707 5705 5704 5704 5705 5717 5721 5718 5710 5703 5699 5697 5693 5691 5687
5748 5749 5747 5745 5744 5743 5739 5735 5736 5736 5734 5732 5730 5728 5726 5725 5724 5724 5722 5720 5716 5714 5713 5712 5710 5708 5706 5706 5704 5703 5702 5701 5702 5710 5719 5716 5710 5703 5696 5694 5692 5691 5688
5741 5741 5738 5738 5740 5739 5738 5738 5730 5728 5726 5724 5723 5723 5722 5724 5726 5723 5723 5720 5716 5713 5710 5709 5706 5703 5701 5699 5701 5700 5698 5701 5704 5709 5717 5713 5707 5701 5696 5692 5691 5689 5688
5726 5729 5732 5731 5729 5732 5735 5736 5729 5729 5725 5723 5724 5723 5719 5721 5724 5727 5726 5722 5718 5713 5709 5706 5703 5701 5698 5701 5701 5698 5697 5702 5706 5712 5715 5709 5705 5700 5695 5691 5690 5688 5686
5715 5718 5716 5716 5721 5726 5731 5734 5733 5732 5730 5728 5722 5721 5721 5718 5718 5720 5722 5719 5715 5712 5709 5704 5702 5699 5701 5701 5705 5706 5703 5702 5706 5711 5712 5707 5703 5697 5693 5691 5689 5687 5685
5701 5699 5698 5700 5703 5709 5712 5726 5730 5730 5731 5728 5725 5714 5714 5711 5711 5712 5714 5714 5714 5715 5711 5707 5702 5701 5699 5700 5701 5704 5707 5706 5708 5709 5708 5705 5702 5695 5691 5692 5691 5688 5685
5689 5688 5685 5686 5687 5692 5694 5697 5708 5715 5719 5716 5713 5706 5702 5704 5703 5703 5705 5706 5707 5706 5705 5703 5701 5697 5694 5692 5694 5699 5699 5702 5700 5703 5706 5701 5699 5693 5687 5686 5686 5686 5684
5672 5671 5669 5672 5672 5676 5678 5678 5682 5685 5688 5690 5690 5687 5687 5685 5689 5690 5693 5694 5697 5698 5698 5698 5696 5694 5691 5691 5689 5690 5696 5697 5696 5697 5699 5695 5693 5691 5686 5684 5684 5684 5681
5654 5653 5653 5653 5654 5658 5665 5664 5665 5668 5669 5669 5671 5671 5671 5670 5670 5672 5674 5678 5682 5686 5690 5689 5689 5688 5688 5690 5693 5692 5690 5690 5690 5692 5691 5690 5687 5688 5686 5682 5680 5680 5681
5640 5636 5636 5635 5638 5641 5642 5647 5647 5650 5648 5651 5654 5656 5655 5657 5656 5657 5660 5662 5664 5667 5671 5675 5678 5681 5680 5683 5693 5691 5694 5687 5684 5684 5680 5685 5688 5689 5682 5682 5679 5678 5677
5630 5628 5625 5623 5623 5628 5630 5631 5633 5634 5632 5634 5636 5639 5638 5642 5643 5644 5647 5651 5653 5656 5659 5661 5663 5664 5670 5679 5669 5673 5677 5685 5678 5679 5679 5682 5681 5680 5681 5677 5678 5676 5674
5617 5615 5612 5610 5609 5612 5617 5618 5617 5615 5619 5619 5620 5618 5620 5622 5624 5626 5634 5638 5637 5642 5645 5649 5652 5655 5657 5661 5668 5673 5674 5677 5677 5675 5669 5669 5668 5659 5657 5660 5663 5671 5672
5602 5601 5601 5599 5597 5596 5597 5599 5604 5600 5598 5599 5599 5599 5599 5600 5600 5602 5605 5611 5613 5617 5619 5621 5629 5638 5645 5650 5647 5655 5659 5661 5666 5658 5663 5648 5659 5657 5659 5651 5655 5662 5670
5589 5588 5587 5585 5583 5583 5582 5581 5580 5581 5583 5579 5576 5579 5578 5578 5576 5576 5578 5581 5585 5589 5593 5596 5598 5608 5621 5632 5632 5631 5638 5647 5652 5658 5655 5661 5667 5664 5670 5657 5658 5661 5663
5569 5568 5569 5567 5566 5562 5560 5563 5564 5566 5567 5563 5562 5558 5559 5557 5556 5555 5557 5561 5564 5568 5571 5575 5576 5580 5591 5604 5611 5615 5620 5630 5641 5648 5655 5661 5661 5666 5664 5663 5663 5658 5661
5552 5548 5545 5544 5542 5540 5536 5538 5538 5541 5542 5541 5541 5538 5538 5537 5535 5535 5535 5540 5543 5547 5551 5556 5556 5557 5563 5576 5584 5596 5605 5611 5609 5626 5643 5653 5659 5658 5659 5663 5662 5664 5666
5538 5535 5531 5530 5528 5521 5518 5516 5516 5515 5514 5515 5516 5516 5516 5516 5516 5518 5517 5523 5528 5529 5533 5539 5539 5541 5546 5553 5559 5567 5577 5591 5598 5603 5615 5635 5649 5655 5659 5658 5660 5666 5666
5524 5520 5518 5517 5514 5508 5504 5500 5496 5493 5490 5490 5489 5490 5489 5493 5497 5497 5501 5506 5511 5514 5518 5522 5527 5530 5534 5539 5543 5550 5555 5563 5577 5584 5595 5614 5628 5646 5657 5663 5664 5665 5665